Regional Weather Roundup
Issued by NWS Upton, NY

Current Version | Previous Version | Text Only | Print | Product List | Glossary Off
Versions: 1 2 3 4 5 6 7 8 9 10 11 12 13 14 15 16 17 18 19 20 21 22 23 24 25 26 27
000 ASUS41 KOKX 261809 RWROKX REGIONAL WEATHER ROUNDUP NATIONAL WEATHER SERVICE NEW YORK NY 200 PM EDT WED APR 26 2017 NOTE: "FAIR" INDICATES FEW OR NO CLOUDS BELOW 12,000 FEET WITH NO SIGNIFICANT WEATHER AND/OR OBSTRUCTIONS TO VISIBILITY. NYZ071-072-176-178-NJZ106-104-261900- NEW YORK CITY METRO AREA CITY SKY/WX TMP DP RH WIND PRES REMARKS Central Park CLOUDY 59 56 89 E10 29.80S Wall St Helipt CLOUDY 59 55 88 NE13 29.78S Bronx Bot Gard N/A 59 55 88 NE12 29.79S LaGuardia APRT CLOUDY 58 54 86 NE10 29.77S Kennedy INTL CLOUDY 60 57 89 N6 29.78R Breezy Point N/A 57 N/A N/A N7 N/A Newark/Liberty CLOUDY 59 56 89 N7 29.77S Teterboro LGT RAIN 61 57 87 NW7 29.76S $$ NYZ177-179-078>081-261900- LONG ISLAND NEW YORK CITY SKY/WX TMP DP RH WIND PRES REMARKS Jones Beach N/A 59 N/A N/A E5 N/A Matinecock PT N/A 52 N/A N/A E13 N/A Farmingdale CLOUDY 62 57 83 E10 29.76S MacArthur/ISP CLOUDY 62 58 86 NE13 29.76S Shirley CLOUDY 60 58 92 VRB5 29.77S Mt Sinai Harb N/A N/A N/A N/A E5 N/A Westhampton CLOUDY 58 55 90 NE9 29.78S FOG East Hampton CLOUDY 54 53 97 N5 29.78R FOG Montauk NOT AVBL $$ NYZ052-065-067-261900- HUDSON VALLEY CITY SKY/WX TMP DP RH WIND PRES REMARKS White Plains CLOUDY 61 56 83 E7 29.77S Larchmont Harb N/A 52 N/A N/A N7 N/A Croton O-T Hud N/A 63 N/A N/A N1 N/A Newburgh CLOUDY 59 57 94 E9 29.81S Montgomery CLOUDY 61 55 81 N12 29.78F Poughkeepsie CLOUDY 58 55 90 NW3 29.78F Albany PTSUNNY 66 56 70 VRB5 29.81F $$ NJZ001-105-106-008-010-013-015-019>022-104-261900- NEW JERSEY CITY SKY/WX TMP DP RH WIND PRES REMARKS Newark/Liberty CLOUDY 59 56 89 N7 29.77S Teterboro LGT RAIN 61 57 87 NW7 29.76S Caldwell CLOUDY 60 55 83 VRB3 29.78S Somerville CLOUDY 62 56 80 VRB3 29.76S Linden CLOUDY 60 56 85 CALM 29.78S Sussex CLOUDY 60 55 83 N5 29.79F Andover N/A 59 54 83 CALM 29.79F Trenton CLOUDY 62 58 86 NE3 29.76F Millville CLOUDY 64 59 83 N5 29.76S Atlantic City CLOUDY 64 58 80 N7 29.76R Wrightstown NOT AVBL Toms River CLOUDY 61 57 87 N8 29.77S Belmar CLOUDY 62 56 80 N8 29.77F $$ PAZ047>061-062-071-261900- EASTERN PENNSYLVANIA CITY SKY/WX TMP DP RH WIND PRES REMARKS Philadelphia CLOUDY 62 56 80 NE5 29.77F Allentown CLOUDY 63 54 72 VRB6 29.78S Scranton MOSUNNY 68 56 65 N9 29.77F $$ CTZ002-004>006-009-010-012-RIZ004-006-007-MAZ004-011-015-261900- SOUTHERN NEW ENGLAND IN CT CITY SKY/WX TMP DP RH WIND PRES REMARKS Bradley INTL CLOUDY 58 54 86 N12 29.82S Hartford CLOUDY 58 55 90 N9 29.80F Danbury CLOUDY 57 56 96 E8 29.80S Wtrbury/Oxford CLOUDY 57 50 77 NE9 29.80F Bridgeport CLOUDY 63 55 75 NE10 29.78R Meriden CLOUDY 59 54 83 NE9 29.80S New Haven CLOUDY 62 56 80 NE10 29.78R Chester CLOUDY 59 57 94 NE8G15 29.79S Groton CLOUDY 57 56 96 E9 29.79S FOG Wilimantic CLOUDY 60 56 86 NE10 29.82R IN RI CITY SKY/WX TMP DP RH WIND PRES REMARKS Providence HVY RAIN 58 58 100 CALM 29.82F VSB 1 Block Island NOT AVBL Westerly CLOUDY 57 57 100 CALM 29.80S FOG IN MA CITY SKY/WX TMP DP RH WIND PRES REMARKS Boston RAIN 53 53 100 E9 29.85S VSB 1/4 Worcester FOG 52 50 93 NE8 29.84S VSB 1 Westfield CLOUDY 57 54 89 N9 29.82F Provincetown CLOUDY 57 56 96 SE17G24 29.85F FOG Nantucket FOG 54 54 100 SE23 29.81F VSB 1/2 $$ ANZ330-335-338-340-345-350-353-355-261900- COASTAL MARINE OBSERVATIONS STATION/POSITION TIME SKY/WX TEMP WIND PRES VSBY WAVE AIR SEA DIR/SP/G HT/PER (UTC) (F) (DEG/KT/KT) (MB) (MI) (FT/S) NY HARB ENTRANCE 1650 51 48 300/ 4/ 6 1008.1 7/11 20 S FIRE ISLAND 1750 49 48 60/ 6/ 8 1007.4 9/11 GREAT SOUTH BAY 1730 58 56 60/ 8/ 10 N/A 23 SSW MONTAUK P 1650 49 46 1008.2 10/11 15 E BARNEGAT LI 1730 50 N/A 7/10 HUDSON CANYON 1650 56 50 150/ 2/ 4 1007.3 10/11 KINGS POINT 1742 57 48 70/ 6/ 11 1007.8 EXECUTION ROCKS NOT AVBL CENTRAL LI SOUND NOT AVBL EASTERN LI SOUND NOT AVBL ROBBINS REEF 1742 58 50/ 8/ 10 1008.4 $$ >>>>>>>>>>>>>>>>>>>>>>>>>>>> KEY <<<<<<<<<<<<<<<<<<<<<<<<<<< > < > SKY/WX - Sky Condition/Present Weather < > TMP - Temperature in Fahrenheit < > DP - Dew Point in Fahrenheit < > RH - Relative Humidity in Percent < > WIND - Direction (from) and Speed in MPH < > PRES - Mean Sea Level Pressure (inches of Hg) < > WCI - Wind Chill Index < > VSB - VISIBILITY IN MILES < > HX - HEAT INDEX < > TC - TEMPERATURE IN CELSIUS < > VRB - VARIABLE WIND DIRECTION < > < >>>>>>>>>>>>>>>>>>>>>>>>>>>> KEY <<<<<<<<<<<<<<<<<<<<<<<<<<<

USA.gov is the U.S. government's official web portal to all federal, state and local government web resources and services.